BWA44M TBPB-TTPP

Flight info

Callsign BWA44M
Flight time 0h 54m
Altitude 24000
Route BGI UR515 TAB DCT NAPKO DCT LEXOR DCT TALUS
Aircraft B738/M-SDE2E3FGHIRWXY/LB1

Departure

Time 2026-05-06 00:42
Airport Grantley Adams International Airport (TBPB)

Arrival

Time 2026-05-06 01:37
Airport Piarco International Airport (TTPP)
Time Latitude Longitude Altitude Speed Heading
2026-05-05 23:24 13.07783 -59.49097 177 ft 0 kts 347°
2026-05-06 00:25 13.07782 -59.49097 177 ft 1 kts 347°
2026-05-06 00:25 13.07770 -59.49094 177 ft 2 kts 345°
2026-05-06 00:25 13.07753 -59.49086 177 ft 3 kts 327°
2026-05-06 00:25 13.07738 -59.49073 177 ft 3 kts 309°
2026-05-06 00:26 13.07728 -59.49056 177 ft 3 kts 291°
2026-05-06 00:26 13.07723 -59.49037 177 ft 3 kts 276°
2026-05-06 00:26 13.07724 -59.49016 177 ft 3 kts 259°
2026-05-06 00:26 13.07725 -59.49011 177 ft 0 kts 257°
2026-05-06 00:30 13.07723 -59.49021 177 ft 4 kts 260°
2026-05-06 00:30 13.07721 -59.49036 177 ft 0 kts 261°
2026-05-06 00:32 13.07715 -59.49051 177 ft 7 kts 243°
2026-05-06 00:32 13.07667 -59.49126 177 ft 15 kts 237°
2026-05-06 00:32 13.07620 -59.49261 177 ft 25 kts 257°
2026-05-06 00:33 13.07579 -59.49440 177 ft 26 kts 256°
2026-05-06 00:33 13.07536 -59.49622 177 ft 27 kts 256°
2026-05-06 00:33 13.07492 -59.49810 177 ft 28 kts 256°
2026-05-06 00:33 13.07446 -59.50006 177 ft 28 kts 256°
2026-05-06 00:34 13.07412 -59.50148 177 ft 28 kts 256°
2026-05-06 00:34 13.07377 -59.50300 177 ft 29 kts 256°
2026-05-06 00:34 13.07334 -59.50498 177 ft 28 kts 258°
2026-05-06 00:34 13.07292 -59.50694 177 ft 22 kts 240°
2026-05-06 00:35 13.07268 -59.50722 177 ft 0 kts 212°
2026-05-06 00:39 13.07237 -59.50730 177 ft 10 kts 179°
2026-05-06 00:39 13.07162 -59.50716 177 ft 0 kts 164°
2026-05-06 00:40 13.07125 -59.50704 177 ft 11 kts 143°
2026-05-06 00:41 13.07118 -59.50625 177 ft 4 kts 75°
2026-05-06 00:41 13.07124 -59.50599 177 ft 1 kts 75°
2026-05-06 00:41 13.07125 -59.50598 177 ft 0 kts 76°
2026-05-06 00:42 13.07158 -59.50459 177 ft 59 kts 76°
2026-05-06 00:42 13.07330 -59.49761 177 ft 140 kts 76°
2026-05-06 00:42 13.07622 -59.48581 256 ft 199 kts 76°
2026-05-06 00:42 13.07993 -59.47078 775 ft 236 kts 76°
2026-05-06 00:43 13.08212 -59.45472 1692 ft 230 kts 93°
2026-05-06 00:43 13.07710 -59.43887 2509 ft 236 kts 121°
2026-05-06 00:43 13.06510 -59.42726 3375 ft 239 kts 150°
2026-05-06 00:43 13.04919 -59.42264 4163 ft 246 kts 177°
2026-05-06 00:44 13.03231 -59.42597 4941 ft 249 kts 205°
2026-05-06 00:44 13.01821 -59.43562 5558 ft 250 kts 221°
2026-05-06 00:44 13.00433 -59.44604 5788 ft 250 kts 219°
2026-05-06 00:44 12.99038 -59.45652 6246 ft 248 kts 219°
2026-05-06 00:45 12.97693 -59.46663 7436 ft 233 kts 220°
2026-05-06 00:45 12.96356 -59.47655 8375 ft 244 kts 219°
2026-05-06 00:45 12.94952 -59.48728 8841 ft 263 kts 220°
2026-05-06 00:45 12.93495 -59.49823 9435 ft 273 kts 219°
2026-05-06 00:46 12.91925 -59.51002 10315 ft 276 kts 219°
2026-05-06 00:46 12.90348 -59.52212 10549 ft 301 kts 224°
2026-05-06 00:46 12.89078 -59.53909 10878 ft 297 kts 244°
2026-05-06 00:46 12.88517 -59.55874 10779 ft 280 kts 266°
2026-05-06 00:47 12.88763 -59.57775 10704 ft 265 kts 288°
2026-05-06 00:47 12.89726 -59.59317 10648 ft 254 kts 312°
2026-05-06 00:47 12.91205 -59.60251 10616 ft 251 kts 336°
2026-05-06 00:47 12.92913 -59.60438 10609 ft 255 kts
2026-05-06 00:48 12.94627 -59.59894 10630 ft 263 kts 21°
2026-05-06 00:48 12.96235 -59.58951 10641 ft 269 kts 28°
2026-05-06 00:48 12.97801 -59.57882 10632 ft 270 kts 31°
2026-05-06 00:48 12.99334 -59.56763 10624 ft 270 kts 32°
2026-05-06 00:49 13.00850 -59.55634 10619 ft 270 kts 32°
2026-05-06 00:49 13.02378 -59.54497 10617 ft 270 kts 32°
2026-05-06 00:49 13.03901 -59.53363 10617 ft 270 kts 32°
2026-05-06 00:49 13.05419 -59.52233 10617 ft 270 kts 32°
2026-05-06 00:50 13.06917 -59.51117 10617 ft 270 kts 32°
2026-05-06 00:50 13.08435 -59.49984 10616 ft 271 kts 33°
2026-05-06 00:50 13.09637 -59.48483 10577 ft 277 kts 62°
2026-05-06 00:50 13.09971 -59.46550 10582 ft 279 kts 96°
2026-05-06 00:51 13.09279 -59.44728 10597 ft 275 kts 130°
2026-05-06 00:51 13.07796 -59.43581 10606 ft 265 kts 164°
2026-05-06 00:51 13.06023 -59.43450 10612 ft 253 kts 198°
2026-05-06 00:51 13.04523 -59.44280 10645 ft 244 kts 224°
2026-05-06 00:52 13.03356 -59.45527 10656 ft 242 kts 233°
2026-05-06 00:52 13.02339 -59.46870 10640 ft 241 kts 237°
2026-05-06 00:52 13.01314 -59.48228 10625 ft 242 kts 231°
2026-05-06 00:52 13.00068 -59.49404 10622 ft 244 kts 225°
2026-05-06 00:53 12.99115 -59.50792 10592 ft 238 kts 250°
2026-05-06 00:53 12.98891 -59.52408 10604 ft 237 kts 275°
2026-05-06 00:53 12.99446 -59.54035 10611 ft 240 kts 300°
2026-05-06 00:53 13.00662 -59.55215 10615 ft 247 kts 325°
2026-05-06 00:54 13.02298 -59.55741 10619 ft 256 kts 350°
2026-05-06 00:54 13.04018 -59.55523 10617 ft 264 kts 14°
2026-05-06 00:54 13.05712 -59.54589 10638 ft 270 kts 31°
2026-05-06 00:54 13.07202 -59.53435 10638 ft 272 kts 34°
2026-05-06 00:55 13.08660 -59.52197 10627 ft 273 kts 38°
2026-05-06 00:55 13.09775 -59.50639 10696 ft 289 kts 64°
2026-05-06 00:55 13.10232 -59.48542 11022 ft 313 kts 88°
2026-05-06 00:55 13.09899 -59.46305 11319 ft 333 kts 110°
2026-05-06 00:56 13.08916 -59.44397 11611 ft 348 kts 128°
2026-05-06 00:56 13.07174 -59.42681 11976 ft 358 kts 149°
2026-05-06 00:56 13.04882 -59.41627 12670 ft 357 kts 169°
2026-05-06 00:56 13.02448 -59.41407 13419 ft 354 kts 188°
2026-05-06 00:57 13.00166 -59.41892 14127 ft 352 kts 201°
2026-05-06 00:57 12.97922 -59.42890 14855 ft 352 kts 212°
2026-05-06 00:57 12.95925 -59.44283 15560 ft 353 kts 220°
2026-05-06 00:57 12.93952 -59.45798 16254 ft 357 kts 220°
2026-05-06 00:58 12.91959 -59.47341 16938 ft 361 kts 220°
2026-05-06 00:58 12.89943 -59.48900 17600 ft 364 kts 220°
2026-05-06 00:58 12.87914 -59.50470 18245 ft 368 kts 220°
2026-05-06 00:58 12.85858 -59.52060 18878 ft 371 kts 220°
2026-05-06 00:59 12.83785 -59.53662 19493 ft 375 kts 220°
2026-05-06 00:59 12.81692 -59.55280 20094 ft 378 kts 220°
2026-05-06 00:59 12.79582 -59.56909 20673 ft 382 kts 220°
2026-05-06 00:59 12.77525 -59.58499 21288 ft 383 kts 220°
2026-05-06 01:00 12.75453 -59.60098 21996 ft 381 kts 220°
2026-05-06 01:00 12.73433 -59.61657 22655 ft 381 kts 220°
2026-05-06 01:00 12.71773 -59.62939 23201 ft 379 kts 220°
2026-05-06 01:00 12.69963 -59.64336 23708 ft 380 kts 220°
2026-05-06 01:01 12.67838 -59.65978 23963 ft 382 kts 220°
2026-05-06 01:01 12.65716 -59.67619 23988 ft 381 kts 220°
2026-05-06 01:01 12.63607 -59.69248 23993 ft 379 kts 220°
2026-05-06 01:01 12.61510 -59.70868 23996 ft 377 kts 220°
2026-05-06 01:02 12.59420 -59.72483 23997 ft 377 kts 220°
2026-05-06 01:02 12.57371 -59.74064 23997 ft 377 kts 220°
2026-05-06 01:02 12.55417 -59.75572 23996 ft 377 kts 220°
2026-05-06 01:02 12.53306 -59.77200 23996 ft 377 kts 220°
2026-05-06 01:03 12.51271 -59.78770 23997 ft 377 kts 220°
2026-05-06 01:03 12.49212 -59.80357 23996 ft 377 kts 220°
2026-05-06 01:03 12.47121 -59.81969 23997 ft 377 kts 220°
2026-05-06 01:03 12.45059 -59.83558 23997 ft 377 kts 220°
2026-05-06 01:04 12.42977 -59.85162 24002 ft 377 kts 220°
2026-05-06 01:04 12.40883 -59.86775 23998 ft 377 kts 220°
2026-05-06 01:04 12.38783 -59.88392 23997 ft 377 kts 220°
2026-05-06 01:04 12.36717 -59.89982 23997 ft 377 kts 220°
2026-05-06 01:05 12.34629 -59.91590 23997 ft 377 kts 220°
2026-05-06 01:05 12.32597 -59.93154 23997 ft 377 kts 220°
2026-05-06 01:05 12.30524 -59.94749 23997 ft 377 kts 220°
2026-05-06 01:05 12.28430 -59.96359 23997 ft 377 kts 220°
2026-05-06 01:06 12.26332 -59.97974 23997 ft 377 kts 220°
2026-05-06 01:06 12.24242 -59.99580 23997 ft 377 kts 220°
2026-05-06 01:06 12.22143 -60.01194 23997 ft 377 kts 220°
2026-05-06 01:06 12.20044 -60.02807 23997 ft 377 kts 220°
2026-05-06 01:07 12.17948 -60.04418 23997 ft 377 kts 220°
2026-05-06 01:07 12.15853 -60.06028 23997 ft 377 kts 220°
2026-05-06 01:07 12.13755 -60.07640 23997 ft 377 kts 220°
2026-05-06 01:07 12.11689 -60.09227 23997 ft 377 kts 220°
2026-05-06 01:08 12.09591 -60.10838 23997 ft 377 kts 220°
2026-05-06 01:08 12.07496 -60.12446 23997 ft 377 kts 220°
2026-05-06 01:08 12.05403 -60.14053 23997 ft 377 kts 220°
2026-05-06 01:08 12.03305 -60.15663 23997 ft 377 kts 220°
2026-05-06 01:09 12.01202 -60.17276 23997 ft 377 kts 220°
2026-05-06 01:09 11.99105 -60.18884 23996 ft 377 kts 220°
2026-05-06 01:09 11.97010 -60.20492 23997 ft 377 kts 220°
2026-05-06 01:09 11.94951 -60.22070 23996 ft 377 kts 220°
2026-05-06 01:10 11.92854 -60.23678 23997 ft 377 kts 220°
2026-05-06 01:10 11.90762 -60.25281 23997 ft 377 kts 220°
2026-05-06 01:10 11.88774 -60.26805 23997 ft 377 kts 220°
2026-05-06 01:10 11.86689 -60.28403 23998 ft 377 kts 220°
2026-05-06 01:11 11.84561 -60.30033 23999 ft 387 kts 220°
2026-05-06 01:11 11.82442 -60.31656 23998 ft 394 kts 219°
2026-05-06 01:11 11.80212 -60.33364 23997 ft 397 kts 219°
2026-05-06 01:11 11.78006 -60.35053 23997 ft 396 kts 219°
2026-05-06 01:12 11.75804 -60.36738 23997 ft 396 kts 219°
2026-05-06 01:12 11.73594 -60.38429 23997 ft 396 kts 219°
2026-05-06 01:12 11.71399 -60.40109 23997 ft 396 kts 219°
2026-05-06 01:12 11.69183 -60.41805 23997 ft 399 kts 219°
2026-05-06 01:13 11.66953 -60.43510 23997 ft 403 kts 219°
2026-05-06 01:13 11.64712 -60.45224 23997 ft 402 kts 219°
2026-05-06 01:13 11.62501 -60.46914 23997 ft 402 kts 219°
2026-05-06 01:13 11.60263 -60.48625 23997 ft 402 kts 219°
2026-05-06 01:14 11.55785 -60.52047 23997 ft 402 kts 219°
2026-05-06 01:14 11.53541 -60.53761 23998 ft 402 kts 219°
2026-05-06 01:14 11.51341 -60.55441 23887 ft 400 kts 219°
2026-05-06 01:15 11.49117 -60.57140 23358 ft 396 kts 219°
2026-05-06 01:15 11.46911 -60.58824 22803 ft 395 kts 219°
2026-05-06 01:15 11.44848 -60.60399 22347 ft 391 kts 219°
2026-05-06 01:15 11.42661 -60.62069 21830 ft 389 kts 219°
2026-05-06 01:16 11.40495 -60.63722 21330 ft 385 kts 220°
2026-05-06 01:16 11.38362 -60.65352 20828 ft 382 kts 220°
2026-05-06 01:16 11.36272 -60.66948 20340 ft 379 kts 220°
2026-05-06 01:16 11.34196 -60.68532 19852 ft 377 kts 220°
2026-05-06 01:17 11.32192 -60.70061 19382 ft 374 kts 220°
2026-05-06 01:17 11.30097 -60.71657 18885 ft 371 kts 220°
2026-05-06 01:17 11.28039 -60.73225 18396 ft 368 kts 220°
2026-05-06 01:17 11.26001 -60.74778 17914 ft 366 kts 220°
2026-05-06 01:18 11.23969 -60.76326 17436 ft 363 kts 220°
2026-05-06 01:18 11.21991 -60.77832 16970 ft 361 kts 220°
2026-05-06 01:18 11.19988 -60.79357 16497 ft 358 kts 219°
2026-05-06 01:18 11.18038 -60.80841 16038 ft 356 kts 219°
2026-05-06 01:19 11.16101 -60.82395 15570 ft 352 kts 224°
2026-05-06 01:19 11.14413 -60.84174 15114 ft 347 kts 233°
2026-05-06 01:19 11.13006 -60.86079 14859 ft 338 kts 237°
2026-05-06 01:19 11.11697 -60.88031 14607 ft 330 kts 238°
2026-05-06 01:20 11.10445 -60.89934 14359 ft 323 kts 238°
2026-05-06 01:20 11.09209 -60.91816 14107 ft 317 kts 238°
2026-05-06 01:20 11.08139 -60.93445 13886 ft 312 kts 238°
2026-05-06 01:20 11.06971 -60.95226 13641 ft 307 kts 238°
2026-05-06 01:21 11.05815 -60.96987 13394 ft 302 kts 238°
2026-05-06 01:21 11.04661 -60.98745 13143 ft 298 kts 238°
2026-05-06 01:21 11.03518 -61.00487 12893 ft 295 kts 238°
2026-05-06 01:21 11.02380 -61.02223 12642 ft 295 kts 238°
2026-05-06 01:22 11.01236 -61.03967 12391 ft 294 kts 238°
2026-05-06 01:22 11.00126 -61.05658 12146 ft 293 kts 238°
2026-05-06 01:22 10.98973 -61.07416 11890 ft 292 kts 238°
2026-05-06 01:22 10.97872 -61.09094 11645 ft 291 kts 238°
2026-05-06 01:23 10.96769 -61.10776 11398 ft 290 kts 238°
2026-05-06 01:23 10.95744 -61.12338 11168 ft 289 kts 238°
2026-05-06 01:23 10.94839 -61.13723 10965 ft 288 kts 238°
2026-05-06 01:23 10.93743 -61.15397 10715 ft 287 kts 238°
2026-05-06 01:24 10.92638 -61.17084 10465 ft 286 kts 238°
2026-05-06 01:24 10.91550 -61.18745 10218 ft 285 kts 238°
2026-05-06 01:24 10.90554 -61.20265 10035 ft 281 kts 238°
2026-05-06 01:24 10.89477 -61.21908 9992 ft 270 kts 238°
2026-05-06 01:25 10.88473 -61.23439 9773 ft 267 kts 238°
2026-05-06 01:25 10.87449 -61.25002 9522 ft 264 kts 239°
2026-05-06 01:25 10.86438 -61.26546 9272 ft 261 kts 239°
2026-05-06 01:25 10.85437 -61.28075 9021 ft 258 kts 239°
2026-05-06 01:26 10.84444 -61.29588 8770 ft 256 kts 239°
2026-05-06 01:26 10.83459 -61.31090 8519 ft 254 kts 239°
2026-05-06 01:26 10.82486 -61.32572 8270 ft 253 kts 239°
2026-05-06 01:26 10.81522 -61.34040 8023 ft 252 kts 238°
2026-05-06 01:27 10.80548 -61.35522 7773 ft 252 kts 238°
2026-05-06 01:27 10.79580 -61.36996 7522 ft 251 kts 238°
2026-05-06 01:27 10.78611 -61.38469 7272 ft 250 kts 238°
2026-05-06 01:27 10.77648 -61.39934 7022 ft 249 kts 238°
2026-05-06 01:28 10.76689 -61.41392 6771 ft 248 kts 238°
2026-05-06 01:28 10.75742 -61.42832 6523 ft 247 kts 238°
2026-05-06 01:28 10.74786 -61.44287 6273 ft 248 kts 239°
2026-05-06 01:28 10.73820 -61.45754 6022 ft 251 kts 239°
2026-05-06 01:29 10.72972 -61.47043 5804 ft 252 kts 239°
2026-05-06 01:29 10.71997 -61.48525 5553 ft 253 kts 239°
2026-05-06 01:29 10.71015 -61.50016 5303 ft 254 kts 239°
2026-05-06 01:29 10.70052 -61.51456 5059 ft 256 kts 236°
2026-05-06 01:30 10.68910 -61.52832 4955 ft 255 kts 228°
2026-05-06 01:30 10.67606 -61.54046 4923 ft 254 kts 223°
2026-05-06 01:30 10.66236 -61.55184 4784 ft 252 kts 221°
2026-05-06 01:30 10.64900 -61.56291 4645 ft 244 kts 221°
2026-05-06 01:31 10.63632 -61.57357 4536 ft 235 kts 221°
2026-05-06 01:31 10.62385 -61.58345 4373 ft 228 kts 211°
2026-05-06 01:31 10.60861 -61.58576 4240 ft 223 kts 170°
2026-05-06 01:31 10.59576 -61.57788 4182 ft 218 kts 129°
2026-05-06 01:32 10.59085 -61.56387 4082 ft 214 kts 92°
2026-05-06 01:32 10.59175 -61.54997 3830 ft 211 kts 84°
2026-05-06 01:32 10.59309 -61.53556 3536 ft 207 kts 83°
2026-05-06 01:32 10.59421 -61.52112 3259 ft 202 kts 86°
2026-05-06 01:33 10.59468 -61.50740 3000 ft 193 kts 89°
2026-05-06 01:33 10.59485 -61.49401 2743 ft 186 kts 89°
2026-05-06 01:33 10.59494 -61.48124 2495 ft 177 kts 90°
2026-05-06 01:33 10.59499 -61.46908 2292 ft 167 kts 90°
2026-05-06 01:34 10.59503 -61.45763 2086 ft 157 kts 90°
2026-05-06 01:34 10.59507 -61.44665 1862 ft 154 kts 90°
2026-05-06 01:34 10.59510 -61.43629 1666 ft 154 kts 90°
2026-05-06 01:34 10.59513 -61.42530 1460 ft 154 kts 90°
2026-05-06 01:35 10.59516 -61.41460 1266 ft 153 kts 90°
2026-05-06 01:35 10.59527 -61.40378 1099 ft 152 kts 89°
2026-05-06 01:35 10.59544 -61.39297 952 ft 156 kts 90°
2026-05-06 01:35 10.59535 -61.38204 737 ft 152 kts 90°
2026-05-06 01:36 10.59528 -61.37145 524 ft 148 kts 90°
2026-05-06 01:36 10.59531 -61.36118 301 ft 142 kts 90°
2026-05-06 01:36 10.59534 -61.35133 101 ft 139 kts 90°
2026-05-06 01:36 10.59533 -61.34214 66 ft 112 kts 88°
2026-05-06 01:37 10.59537 -61.33696 66 ft 32 kts 91°
2026-05-06 01:37 10.59548 -61.33527 66 ft 20 kts 55°
2026-05-06 01:37 10.59608 -61.33479 66 ft 2 kts 34°
2026-05-06 01:37 10.59646 -61.33461 66 ft 12 kts
2026-05-06 01:38 10.59711 -61.33545 66 ft 15 kts 268°
2026-05-06 01:38 10.59708 -61.33639 66 ft 9 kts 270°
2026-05-06 01:38 10.59708 -61.33659 66 ft 0 kts 269°
2026-05-06 01:38 10.59710 -61.33681 66 ft 22 kts 274°
2026-05-06 01:39 10.59706 -61.33965 66 ft 20 kts 272°
2026-05-06 01:39 10.59715 -61.33993 66 ft 12 kts 313°
2026-05-06 01:39 10.59802 -61.33960 66 ft 0 kts 47°
2026-05-06 01:39 10.59802 -61.33959 66 ft 0 kts 47°